Date String (YYYY-MM-DD hh:mm:ss) UTC,Instrument flags,absolute air pressure of the measurement (hPa),sample flow rate (lpm),inlet stack bypass flow (lpm),air temperature of the measurement (°C),ambient temperature measured by the external sensor (°C),aerosol sample conditioner tube jacket temperature (°C),OPC LED temperature (°C),internal box temperature (°C),relative humidity of the measurement (%),span deviation,mass concentration of particles derived from Lorenz-Mie calculation of OPC scattering (μg/m³),mass concentration of particles derived from Lorenz-Mie calculation of OPC scattering (μg/m³),mass concentration of particles derived from Lorenz-Mie calculation of OPC scattering (μg/m³)
DateTimeUTC,F1_M11,P_M11,Q1_M11,Q2_M11,T1_M11,T2_M11,T3_M11,T4_M11,T5_M11,U1_M11,ZSPAN_M11,X0_M11,X2_M11,X1_M11
2023-06-27 06:00:00,SystemResetWarning,0827.0,5.01,000.00,029.5,027.8,000.0,038.1,031.0,26.1,0000.0,0015.28,0005.66,0004.49
2023-06-27 06:01:00,SystemResetWarning,0827.0,4.99,000.00,029.6,027.9,000.0,038.1,031.1,26.1,0000.0,0015.82,0005.64,0004.47
2023-06-27 06:02:00,SystemResetWarning,0827.0,5.00,000.00,029.6,028.0,000.0,038.1,031.2,26.2,0000.2,0015.78,0005.63,0004.46
2023-06-27 06:03:00,SystemResetWarning,0827.0,5.00,000.00,029.6,028.1,000.0,038.1,031.2,26.3,0000.0,0015.65,0005.60,0004.44
2023-06-27 06:04:00,SystemResetWarning,0827.0,5.01,000.00,029.7,028.2,000.0,038.1,031.2,26.1,0000.0,0015.43,0005.59,0004.43
2023-06-27 06:05:00,SystemResetWarning,0827.0,4.99,000.00,029.7,028.3,000.0,038.1,031.2,26.0,0000.0,0016.58,0005.63,0004.42
2023-06-27 06:06:00,SystemResetWarning,0827.0,4.99,000.00,029.7,028.3,000.0,038.2,031.3,25.7,0000.3,0017.02,0005.65,0004.42
2023-06-27 06:07:00,SystemResetWarning,0826.9,5.00,000.00,029.7,028.4,000.0,038.2,031.3,25.9,0000.4,0017.39,0005.67,0004.41
2023-06-27 06:08:00,SystemResetWarning,0826.9,5.00,000.00,029.8,028.1,000.0,038.2,031.4,25.9,0000.2,0017.05,0005.64,0004.39
2023-06-27 06:09:00,SystemResetWarning,0826.9,4.99,000.00,029.8,026.0,000.0,038.1,031.4,26.0,0000.4,0016.78,0005.59,0004.38
2023-06-27 06:10:00,SystemResetWarning,0826.9,5.02,000.00,029.8,024.9,000.0,038.1,031.3,26.0,0001.1,0016.18,0005.54,0004.36
2023-06-27 06:11:00,SystemResetWarning,0826.9,5.00,000.00,029.7,025.0,000.0,038.1,031.0,25.9,0001.5,0015.53,0005.50,0004.35
2023-06-27 06:12:00,SystemResetWarning,0826.9,5.00,000.00,029.6,025.4,000.0,038.1,030.8,26.2,0000.0,0015.67,0005.53,0004.35
2023-06-27 06:13:00,SystemResetWarning,0826.9,5.00,000.00,029.5,025.9,000.0,038.1,030.8,26.3,0000.0,0015.75,0005.51,0004.35
2023-06-27 06:14:00,SystemResetWarning,0826.9,5.00,000.00,029.5,026.3,000.0,038.1,030.8,26.3,0000.0,0015.95,0005.50,0004.35
2023-06-27 06:15:00,SystemResetWarning,0826.9,5.00,000.00,029.5,026.7,000.0,038.1,030.9,26.2,0000.0,0015.67,0005.48,0004.35
2023-06-27 06:16:00,SystemResetWarning,0826.9,5.00,000.00,029.5,027.0,000.0,038.1,030.9,25.9,0000.0,0014.96,0005.46,0004.36
2023-06-27 06:17:00,SystemResetWarning,0826.8,4.99,000.00,029.5,027.3,000.0,038.1,031.0,25.7,0000.0,0014.41,0005.42,0004.35
2023-06-27 06:18:00,SystemResetWarning,0826.8,4.99,000.00,029.5,027.5,000.0,038.1,031.0,25.7,0000.0,0013.66,0005.41,0004.34
2023-06-27 06:19:00,SystemResetWarning,0826.8,5.01,000.00,029.5,027.6,000.0,038.1,031.0,25.8,0000.0,0013.67,0005.36,0004.34
2023-06-27 06:20:00,SystemResetWarning,0826.8,5.01,000.00,029.6,027.8,000.0,038.1,031.1,25.8,0000.0,0013.96,0005.35,0004.34
2023-06-27 06:21:00,SystemResetWarning,0826.8,4.99,000.00,029.6,027.9,000.0,038.1,031.1,25.4,0000.0,0013.80,0005.35,0004.35
2023-06-27 06:22:00,SystemResetWarning,0826.7,4.99,000.00,029.6,028.0,000.0,038.1,031.1,25.2,0000.0,0013.48,0005.34,0004.34
2023-06-27 06:23:00,SystemResetWarning,0826.8,5.00,000.00,029.6,028.1,000.0,038.1,031.2,25.1,0000.0,0012.77,0005.31,0004.32
2023-06-27 06:24:00,SystemResetWarning,0826.8,4.99,000.00,029.7,028.2,000.0,038.2,031.2,25.2,0000.0,0012.63,0005.34,0004.32
2023-06-27 06:25:00,SystemResetWarning,0826.8,5.01,000.00,029.7,028.3,000.0,038.2,031.2,24.8,0000.0,0013.12,0005.36,0004.31
2023-06-27 06:26:00,SystemResetWarning,0826.8,5.01,000.00,029.7,028.3,000.0,038.2,031.2,24.4,0000.0,0013.04,0005.34,0004.30
2023-06-27 06:27:00,SystemResetWarning,0826.8,4.99,000.00,029.7,028.4,000.0,038.2,031.3,24.3,0000.0,0013.37,0005.35,0004.28
2023-06-27 06:28:00,SystemResetWarning,0826.8,4.99,000.00,029.8,028.4,000.0,038.2,031.3,24.1,0000.0,0013.37,0005.37,0004.27
2023-06-27 06:29:00,SystemResetWarning,0826.7,5.00,000.00,029.8,028.4,000.0,038.3,031.3,24.1,0000.0,0013.47,0005.34,0004.26
2023-06-27 06:30:00,SystemResetWarning,0826.8,5.00,000.00,029.8,027.9,000.0,038.2,031.4,24.5,0000.0,0014.18,0005.37,0004.23
2023-06-27 06:31:00,SystemResetWarning,0826.8,5.00,000.00,029.8,025.7,000.0,038.2,031.4,25.0,0000.0,0013.63,0005.38,0004.20
2023-06-27 06:32:00,SystemResetWarning,0826.7,5.00,000.00,029.8,024.9,000.0,038.1,031.3,24.8,0000.0,0013.64,0005.42,0004.19
2023-06-27 06:33:00,SystemResetWarning,0826.7,5.00,000.00,029.7,025.1,000.0,038.1,031.0,24.7,0000.0,0013.66,0005.40,0004.19
2023-06-27 06:34:00,SystemResetWarning,0826.8,5.01,000.00,029.6,025.5,000.0,038.1,030.9,24.2,0000.0,0013.46,0005.37,0004.18
2023-06-27 06:35:00,SystemResetWarning,0826.8,5.00,000.00,029.6,025.9,000.0,038.1,030.9,24.4,0000.0,0013.92,0005.30,0004.17
2023-06-27 06:36:00,SystemResetWarning,0826.8,4.99,000.00,029.6,026.3,000.0,038.1,030.9,24.5,0000.0,0013.57,0005.24,0004.16
2023-06-27 06:37:00,SystemResetWarning,0826.7,5.00,000.00,029.6,026.7,000.0,038.1,030.9,24.6,0000.0,0013.35,0005.24,0004.16
2023-06-27 06:38:00,SystemResetWarning,0826.6,5.00,000.00,029.6,027.0,000.0,038.1,030.9,23.9,0000.0,0012.62,0005.21,0004.16
2023-06-27 06:39:00,SystemResetWarning,0826.6,5.00,000.00,029.6,027.3,000.0,038.1,030.9,23.6,0000.0,0011.86,0005.18,0004.16
2023-06-27 06:40:00,SystemResetWarning,0826.6,5.01,000.00,029.6,027.5,000.0,038.1,031.0,22.8,0000.0,0011.82,0005.19,0004.16
2023-06-27 06:41:00,SystemResetWarning,0826.6,5.00,000.00,029.6,027.6,000.0,038.1,031.1,23.2,0000.0,0011.17,0005.15,0004.15
2023-06-27 06:42:00,SystemResetWarning,0826.6,4.99,000.00,029.6,027.8,000.0,038.1,031.1,23.1,0000.0,0011.12,0005.12,0004.15
2023-06-27 06:43:00,SystemResetWarning,0826.6,4.99,000.00,029.6,027.9,000.0,038.1,031.1,23.5,0000.0,0011.25,0005.08,0004.15
2023-06-27 06:44:00,SystemResetWarning,0826.6,5.00,000.00,029.6,028.0,000.0,038.2,031.1,23.3,0000.0,0011.37,0005.09,0004.13
2023-06-27 06:45:00,SystemResetWarning,0826.6,5.00,000.00,029.7,028.1,000.0,038.2,031.2,22.7,0000.0,0011.39,0005.05,0004.12
2023-06-27 06:46:00,SystemResetWarning,0826.6,5.01,000.00,029.7,028.2,000.0,038.2,031.2,23.2,0000.0,0010.91,0005.03,0004.10
2023-06-27 06:47:00,SystemResetWarning,0826.6,5.01,000.00,029.7,028.2,000.0,038.2,031.2,22.6,0000.0,0009.96,0005.01,0004.09
2023-06-27 06:48:00,SystemResetWarning,0826.6,5.00,000.00,029.7,028.3,000.0,038.2,031.3,22.3,0000.0,0010.01,0005.01,0004.07
2023-06-27 06:49:00,SystemResetWarning,0826.5,5.00,000.00,029.8,028.3,000.0,038.2,031.3,22.6,0000.0,0010.13,0004.99,0004.06
2023-06-27 06:50:00,SystemResetWarning,0826.5,4.99,000.00,029.8,028.4,000.0,038.3,031.3,22.1,0000.0,0010.51,0004.99,0004.04
2023-06-27 06:51:00,SystemResetWarning,0826.5,5.00,000.00,029.8,028.4,000.0,038.3,031.4,21.9,0000.0,0011.54,0004.97,0004.03
2023-06-27 06:52:00,SystemResetWarning,0826.5,5.00,000.00,029.9,027.7,000.0,038.3,031.4,21.8,0000.0,0012.04,0004.94,0004.02
2023-06-27 06:53:00,SystemResetWarning,0826.6,5.00,000.00,029.8,025.5,000.0,038.2,031.4,21.9,0000.0,0011.86,0004.90,0004.00
2023-06-27 06:54:00,SystemResetWarning,0826.6,5.01,000.00,029.8,024.9,000.0,038.1,031.3,21.7,0000.0,0011.62,0004.88,0003.99
2023-06-27 06:55:00,SystemResetWarning,0826.6,5.00,000.00,029.7,025.1,000.0,038.1,031.0,21.9,0000.0,0011.67,0004.85,0003.98
2023-06-27 06:56:00,SystemResetWarning,0826.6,4.99,000.00,029.6,025.5,000.0,038.1,031.0,21.8,0000.0,0012.20,0004.83,0003.96
2023-06-27 06:57:00,SystemResetWarning,0826.6,5.00,000.00,029.6,026.0,000.0,038.1,030.9,21.5,0000.0,0012.32,0004.81,0003.95
2023-06-27 06:58:00,SystemResetWarning,0826.6,5.01,000.00,029.6,026.4,000.0,038.1,030.9,21.5,0000.0,0012.77,0004.81,0003.95
2023-06-27 06:59:00,SystemResetWarning,0826.6,5.00,000.00,029.6,026.7,000.0,038.1,030.9,21.4,0000.0,0013.11,0004.85,0003.95
